Time,TemperatureF,DewpointF,PressureIn,WindDirection,WindDirectionDegrees,WindSpeedMPH,WindSpeedGustMPH,Humidity,HourlyPrecipIn,Conditions,Clouds,dailyrainin,SoftwareType,DateUTC
2013-04-04 00:00:00,35.6,25.0,30.25,NNE,22,5.0,6.0,65,0.00,,,0.00,meteohub,2013-04-03 23:00:00,
2013-04-04 00:05:00,35.6,25.3,30.25,North,0,5.0,8.0,66,0.00,,,0.00,meteohub,2013-04-03 23:05:00,
2013-04-04 00:10:00,35.6,25.7,30.25,NNE,22,6.0,8.0,67,0.00,,,0.00,meteohub,2013-04-03 23:10:00,
2013-04-04 00:15:00,35.6,26.1,30.25,WNW,292,5.0,8.0,68,0.00,,,0.00,meteohub,2013-04-03 23:15:00,
2013-04-04 00:20:00,35.6,26.4,30.28,NE,45,5.0,9.0,69,0.00,,,0.00,meteohub,2013-04-03 23:20:00,
2013-04-04 00:25:00,35.6,26.8,30.28,North,0,7.0,9.0,70,0.00,,,0.00,meteohub,2013-04-03 23:25:00,
2013-04-04 00:32:00,35.6,27.5,30.28,NNE,22,6.0,9.0,72,0.00,,,0.00,meteohub,2013-04-03 23:32:00,
2013-04-04 00:37:00,35.6,27.5,30.25,North,0,6.0,9.0,72,0.00,,,0.00,meteohub,2013-04-03 23:37:00,
2013-04-04 00:42:00,35.4,27.7,30.25,NNE,22,6.0,9.0,73,0.00,,,0.00,meteohub,2013-04-03 23:42:00,
2013-04-04 00:47:00,35.4,28.0,30.25,NE,45,8.0,9.0,74,0.00,,,0.00,meteohub,2013-04-03 23:47:00,
2013-04-04 00:52:00,35.4,28.2,30.25,NNE,22,6.0,9.0,75,0.00,,,0.00,meteohub,2013-04-03 23:52:00,
2013-04-04 00:57:00,35.4,28.2,30.25,NNE,22,5.0,9.0,75,0.00,,,0.00,meteohub,2013-04-03 23:57:00,
2013-04-04 01:02:00,35.4,28.2,30.25,NNE,22,7.0,9.0,75,0.00,,,0.00,meteohub,2013-04-04 00:02:00,
2013-04-04 01:07:00,35.4,28.6,30.25,ENE,67,4.0,9.0,76,0.00,,,0.00,meteohub,2013-04-04 00:07:00,
2013-04-04 01:12:00,35.4,28.6,30.25,NNE,22,4.0,9.0,76,0.00,,,0.00,meteohub,2013-04-04 00:12:00,
2013-04-04 01:18:00,35.4,28.9,30.25,NNE,22,4.0,9.0,77,0.00,,,0.00,meteohub,2013-04-04 00:18:00,
2013-04-04 01:23:00,35.4,28.9,30.25,NNE,22,11.0,11.0,77,0.00,,,0.00,meteohub,2013-04-04 00:23:00,
2013-04-04 01:28:00,35.6,29.5,30.25,NNE,22,13.0,13.0,78,0.00,,,0.00,meteohub,2013-04-04 00:28:00,
2013-04-04 01:33:00,35.8,29.7,30.25,NNE,22,10.0,13.0,78,0.00,,,0.00,meteohub,2013-04-04 00:33:00,
2013-04-04 01:38:00,35.8,29.7,30.25,NE,45,4.0,13.0,78,0.00,,,0.00,meteohub,2013-04-04 00:38:00,
2013-04-04 01:43:00,35.8,29.7,30.25,NE,45,6.0,13.0,78,0.00,,,0.00,meteohub,2013-04-04 00:43:00,
2013-04-04 01:49:00,35.8,29.7,30.25,SE,135,4.0,11.0,78,0.00,,,0.00,meteohub,2013-04-04 00:49:00,
2013-04-04 01:54:00,35.8,29.7,30.25,NE,45,6.0,12.0,78,0.00,,,0.00,meteohub,2013-04-04 00:54:00,
2013-04-04 01:59:00,35.8,29.7,30.25,NE,45,7.0,12.0,78,0.00,,,0.00,meteohub,2013-04-04 00:59:00,
2013-04-04 02:04:00,35.6,29.5,30.25,NE,45,6.0,12.0,78,0.00,,,0.00,meteohub,2013-04-04 01:04:00,
2013-04-04 02:09:00,35.6,29.5,30.25,NE,45,8.0,9.0,78,0.00,,,0.00,meteohub,2013-04-04 01:09:00,
2013-04-04 02:14:00,35.4,29.5,30.25,NNE,22,6.0,9.0,79,0.00,,,0.00,meteohub,2013-04-04 01:14:00,
2013-04-04 02:20:00,35.2,29.3,30.25,ENE,67,6.0,9.0,79,0.00,,,0.00,meteohub,2013-04-04 01:20:00,
2013-04-04 02:25:00,35.1,29.1,30.25,NNE,22,5.0,9.0,79,0.00,,,0.00,meteohub,2013-04-04 01:25:00,
2013-04-04 02:30:00,35.1,29.1,30.25,NNE,22,4.0,9.0,79,0.00,,,0.00,meteohub,2013-04-04 01:30:00,
2013-04-04 02:35:00,35.1,29.5,30.25,NE,45,10.0,10.0,80,0.00,,,0.00,meteohub,2013-04-04 01:35:00,
2013-04-04 02:40:00,35.1,29.5,30.25,NNE,22,11.0,11.0,80,0.00,,,0.00,meteohub,2013-04-04 01:40:00,
2013-04-04 02:45:00,35.1,29.5,30.25,NNE,22,4.0,11.0,80,0.00,,,0.00,meteohub,2013-04-04 01:45:00,
2013-04-04 02:51:00,35.2,29.3,30.25,ENE,67,6.0,11.0,79,0.00,,,0.00,meteohub,2013-04-04 01:51:00,
2013-04-04 02:56:00,35.2,29.1,30.25,North,0,10.0,11.0,78,0.00,,,0.00,meteohub,2013-04-04 01:56:00,
2013-04-04 03:01:00,35.4,29.3,30.25,NE,45,8.0,15.0,78,0.00,,,0.00,meteohub,2013-04-04 02:01:00,
2013-04-04 03:06:00,35.2,28.4,30.25,NNE,22,6.0,15.0,76,0.00,,,0.00,meteohub,2013-04-04 02:06:00,
2013-04-04 03:12:00,35.2,28.4,30.25,North,0,10.0,15.0,76,0.00,,,0.00,meteohub,2013-04-04 02:12:00,
2013-04-04 03:17:00,35.2,28.0,30.25,NNE,22,8.0,15.0,75,0.00,,,0.00,meteohub,2013-04-04 02:17:00,
2013-04-04 03:22:00,35.1,27.9,30.25,NE,45,6.0,13.0,75,0.00,,,0.00,meteohub,2013-04-04 02:22:00,
2013-04-04 03:27:00,35.1,27.9,30.25,NNE,22,5.0,11.0,75,0.00,,,0.00,meteohub,2013-04-04 02:27:00,
2013-04-04 03:32:00,35.1,27.9,30.25,NNE,22,6.0,11.0,75,0.00,,,0.00,meteohub,2013-04-04 02:32:00,
2013-04-04 03:38:00,35.1,27.9,30.25,NNE,22,7.0,11.0,75,0.00,,,0.00,meteohub,2013-04-04 02:38:00,
2013-04-04 03:43:00,35.1,27.9,30.25,NNE,22,4.0,11.0,75,0.00,,,0.00,meteohub,2013-04-04 02:43:00,
2013-04-04 03:48:00,35.2,28.0,30.25,NE,45,6.0,11.0,75,0.00,,,0.00,meteohub,2013-04-04 02:48:00,
2013-04-04 03:54:00,35.2,28.0,30.25,NNE,22,5.0,11.0,75,0.00,,,0.00,meteohub,2013-04-04 02:54:00,
2013-04-04 03:59:00,35.2,28.0,30.25,North,0,6.0,11.0,75,0.00,,,0.00,meteohub,2013-04-04 02:59:00,
2013-04-04 04:04:00,35.2,28.0,30.25,NE,45,5.0,11.0,75,0.00,,,0.00,meteohub,2013-04-04 03:04:00,
2013-04-04 04:09:00,35.1,27.9,30.25,NE,45,6.0,11.0,75,0.00,,,0.00,meteohub,2013-04-04 03:09:00,
2013-04-04 04:15:00,34.9,27.7,30.25,North,0,4.0,11.0,75,0.00,,,0.00,meteohub,2013-04-04 03:15:00,
2013-04-04 04:20:00,34.9,27.7,30.25,North,0,6.0,11.0,75,0.00,,,0.00,meteohub,2013-04-04 03:20:00,
2013-04-04 04:26:00,34.9,28.0,30.25,East,90,4.0,11.0,76,0.00,,,0.00,meteohub,2013-04-04 03:26:00,
2013-04-04 04:31:00,34.9,28.0,30.25,North,0,6.0,8.0,76,0.00,,,0.00,meteohub,2013-04-04 03:31:00,
2013-04-04 04:37:00,34.7,27.9,30.25,North,0,4.0,8.0,76,0.00,,,0.00,meteohub,2013-04-04 03:37:00,
2013-04-04 04:42:00,34.7,27.9,30.25,NNE,22,6.0,7.0,76,0.00,,,0.00,meteohub,2013-04-04 03:42:00,
2013-04-04 04:47:00,34.7,28.2,30.25,NE,45,3.0,6.0,77,0.00,,,0.00,meteohub,2013-04-04 03:47:00,
2013-04-04 04:52:00,34.5,27.7,30.25,NE,45,3.0,6.0,76,0.00,,,0.00,meteohub,2013-04-04 03:52:00,
2013-04-04 04:57:00,34.3,27.9,30.25,ENE,67,2.0,6.0,77,0.00,,,0.00,meteohub,2013-04-04 03:57:00,
2013-04-04 05:00:00,34.3,27.9,30.25,NE,45,3.0,5.0,77,0.00,,,0.00,meteohub,2013-04-04 04:00:00,
2013-04-04 05:01:00,34.3,27.9,30.25,ENE,67,3.0,5.0,77,0.00,,,0.00,meteohub,2013-04-04 04:01:00,
2013-04-04 05:07:00,34.2,27.7,30.25,NE,45,4.0,6.0,77,0.00,,,0.00,meteohub,2013-04-04 04:07:00,
2013-04-04 05:09:00,34.0,27.5,30.25,ENE,67,4.0,6.0,77,0.00,,,0.00,meteohub,2013-04-04 04:09:00,
2013-04-04 05:14:00,34.0,27.5,30.25,East,90,4.0,6.0,77,0.00,,,0.00,meteohub,2013-04-04 04:14:00,
2013-04-04 05:19:00,33.8,27.3,30.25,NNE,22,4.0,6.0,77,0.00,,,0.00,meteohub,2013-04-04 04:19:00,
2013-04-04 05:24:00,33.8,27.3,30.25,NNE,22,0.0,5.0,77,0.00,,,0.00,meteohub,2013-04-04 04:24:00,
2013-04-04 05:30:00,33.6,27.5,30.25,NE,45,0.0,5.0,78,0.00,,,0.00,meteohub,2013-04-04 04:30:00,
2013-04-04 05:35:00,33.6,27.5,30.25,North,0,0.0,5.0,78,0.00,,,0.00,meteohub,2013-04-04 04:35:00,
2013-04-04 05:40:00,33.6,27.5,30.25,NNE,22,0.0,4.0,78,0.00,,,0.00,meteohub,2013-04-04 04:40:00,
2013-04-04 05:45:00,33.6,27.5,30.25,North,0,1.0,4.0,78,0.00,,,0.00,meteohub,2013-04-04 04:45:00,
2013-04-04 05:50:00,33.6,27.5,30.25,NNE,22,3.0,3.0,78,0.00,,,0.00,meteohub,2013-04-04 04:50:00,
2013-04-04 05:55:00,33.6,27.5,30.25,NE,45,3.0,4.0,78,0.00,,,0.00,meteohub,2013-04-04 04:55:00,
2013-04-04 06:00:00,33.8,27.7,30.25,NE,45,3.0,4.0,78,0.00,,,0.00,meteohub,2013-04-04 05:00:00,
2013-04-04 06:06:00,34.0,28.2,30.25,ENE,67,6.0,6.0,79,0.00,,,0.00,meteohub,2013-04-04 05:06:00,
2013-04-04 06:12:00,34.0,28.4,30.25,NE,45,6.0,7.0,80,0.00,,,0.00,meteohub,2013-04-04 05:12:00,
2013-04-04 06:17:00,34.2,28.6,30.25,NE,45,6.0,8.0,80,0.00,,,0.00,meteohub,2013-04-04 05:17:00,
2013-04-04 06:22:00,34.3,28.8,30.25,ENE,67,6.0,8.0,80,0.00,,,0.00,meteohub,2013-04-04 05:22:00,
2013-04-04 06:27:00,34.3,28.8,30.25,NNE,22,4.0,8.0,80,0.00,,,0.00,meteohub,2013-04-04 05:27:00,
2013-04-04 06:33:00,34.3,29.1,30.25,East,90,4.0,6.0,81,0.00,,,0.00,meteohub,2013-04-04 05:33:00,
2013-04-04 06:38:00,34.5,29.3,30.25,East,90,4.0,6.0,81,0.00,,,0.00,meteohub,2013-04-04 05:38:00,
2013-04-04 06:43:00,34.5,29.3,30.25,ENE,67,4.0,6.0,81,0.00,,,0.00,meteohub,2013-04-04 05:43:00,
2013-04-04 06:49:00,34.5,29.3,30.25,NE,45,3.0,5.0,81,0.00,,,0.00,meteohub,2013-04-04 05:49:00,
2013-04-04 06:54:00,34.5,29.3,30.25,NE,45,2.0,5.0,81,0.00,,,0.00,meteohub,2013-04-04 05:54:00,
2013-04-04 07:00:00,34.5,29.3,30.25,East,90,2.0,5.0,81,0.00,,,0.00,meteohub,2013-04-04 06:00:00,
2013-04-04 07:05:00,34.5,29.3,30.25,East,90,4.0,5.0,81,0.00,,,0.00,meteohub,2013-04-04 06:05:00,
2013-04-04 07:10:00,34.5,29.3,30.25,East,90,4.0,5.0,81,0.00,,,0.00,meteohub,2013-04-04 06:10:00,
2013-04-04 07:15:00,34.5,29.3,30.25,East,90,4.0,5.0,81,0.00,,,0.00,meteohub,2013-04-04 06:15:00,
2013-04-04 07:20:00,34.5,29.3,30.25,ENE,67,4.0,5.0,81,0.00,,,0.00,meteohub,2013-04-04 06:20:00,
2013-04-04 07:25:00,34.5,29.7,30.25,ENE,67,0.0,5.0,82,0.00,,,0.00,meteohub,2013-04-04 06:25:00,
2013-04-04 07:30:00,34.7,29.8,30.25,East,90,6.0,6.0,82,0.00,,,0.00,meteohub,2013-04-04 06:30:00,
2013-04-04 07:36:00,34.9,30.2,30.25,East,90,4.0,6.0,83,0.00,,,0.00,meteohub,2013-04-04 06:36:00,
2013-04-04 07:41:00,35.1,30.7,30.25,East,90,4.0,6.0,84,0.00,,,0.00,meteohub,2013-04-04 06:41:00,
2013-04-04 07:47:00,35.2,30.9,30.25,East,90,5.0,6.0,84,0.00,,,0.00,meteohub,2013-04-04 06:47:00,
2013-04-04 07:52:00,35.4,31.3,30.25,East,90,5.0,6.0,85,0.00,,,0.00,meteohub,2013-04-04 06:52:00,
2013-04-04 07:57:00,35.6,31.5,30.25,ENE,67,8.0,11.0,85,0.00,,,0.00,meteohub,2013-04-04 06:57:00,
2013-04-04 08:02:00,36.1,32.4,30.25,ENE,67,9.0,11.0,86,0.00,,,0.00,meteohub,2013-04-04 07:02:00,
2013-04-04 08:07:00,36.1,32.0,30.25,ENE,67,7.0,11.0,85,0.00,,,0.00,meteohub,2013-04-04 07:07:00,
2013-04-04 08:12:00,36.3,32.2,30.25,NNE,22,7.0,11.0,85,0.00,,,0.00,meteohub,2013-04-04 07:12:00,
2013-04-04 08:17:00,36.5,32.2,30.25,NE,45,7.0,11.0,84,0.00,,,0.00,meteohub,2013-04-04 07:17:00,
2013-04-04 08:23:00,36.5,32.2,30.25,NE,45,6.0,14.0,84,0.00,,,0.00,meteohub,2013-04-04 07:23:00,
2013-04-04 08:28:00,36.5,32.2,30.25,NNE,22,4.0,14.0,84,0.00,,,0.00,meteohub,2013-04-04 07:28:00,
2013-04-04 08:33:00,36.5,32.2,30.25,NE,45,8.0,14.0,84,0.00,,,0.00,meteohub,2013-04-04 07:33:00,
2013-04-04 08:39:00,36.9,32.5,30.25,ENE,67,4.0,11.0,84,0.00,,,0.00,meteohub,2013-04-04 07:39:00,
2013-04-04 08:44:00,37.2,32.9,30.25,NE,45,11.0,11.0,84,0.00,,,0.00,meteohub,2013-04-04 07:44:00,
2013-04-04 08:49:00,37.4,32.7,30.25,North,0,11.0,11.0,83,0.00,,,0.00,meteohub,2013-04-04 07:49:00,
2013-04-04 08:54:00,37.6,32.5,30.25,NE,45,4.0,12.0,82,0.00,,,0.00,meteohub,2013-04-04 07:54:00,
2013-04-04 08:59:00,37.9,32.7,30.25,ENE,67,4.0,12.0,81,0.00,,,0.00,meteohub,2013-04-04 07:59:00,
2013-04-04 09:05:00,38.1,32.5,30.25,North,0,6.0,12.0,80,0.00,,,0.00,meteohub,2013-04-04 08:05:00,
2013-04-04 09:10:00,38.3,32.0,30.25,NE,45,6.0,12.0,78,0.00,,,0.00,meteohub,2013-04-04 08:10:00,
2013-04-04 09:15:00,38.7,32.4,30.25,NNE,22,7.0,13.0,78,0.00,,,0.00,meteohub,2013-04-04 08:15:00,
2013-04-04 09:21:00,38.8,32.2,30.25,NE,45,10.0,13.0,77,0.00,,,0.00,meteohub,2013-04-04 08:21:00,
2013-04-04 09:26:00,38.8,32.0,30.25,ENE,67,7.0,13.0,76,0.00,,,0.00,meteohub,2013-04-04 08:26:00,
2013-04-04 09:32:00,38.8,31.6,30.25,NNE,22,8.0,11.0,75,0.00,,,0.00,meteohub,2013-04-04 08:32:00,
2013-04-04 09:37:00,39.2,31.6,30.25,NE,45,5.0,11.0,74,0.00,,,0.00,meteohub,2013-04-04 08:37:00,
2013-04-04 09:42:00,39.2,31.6,30.25,NE,45,8.0,11.0,74,0.00,,,0.00,meteohub,2013-04-04 08:42:00,
2013-04-04 09:47:00,39.4,31.8,30.25,NE,45,6.0,11.0,74,0.00,,,0.00,meteohub,2013-04-04 08:47:00,
2013-04-04 09:52:00,39.9,32.0,30.25,NNE,22,8.0,13.0,73,0.00,,,0.00,meteohub,2013-04-04 08:52:00,
2013-04-04 09:57:00,40.1,30.0,30.25,NE,45,10.0,13.0,67,0.00,,,0.00,meteohub,2013-04-04 08:57:00,
2013-04-04 10:02:00,40.1,30.4,30.25,NNE,22,12.0,14.0,68,0.00,,,0.00,meteohub,2013-04-04 09:02:00,
2013-04-04 10:07:00,40.6,30.9,30.25,NE,45,5.0,14.0,68,0.00,,,0.00,meteohub,2013-04-04 09:07:00,
2013-04-04 10:13:00,40.6,29.5,30.25,NE,45,7.0,14.0,64,0.00,,,0.00,meteohub,2013-04-04 09:13:00,
2013-04-04 10:18:00,41.2,29.5,30.25,ENE,67,12.0,13.0,63,0.00,,,0.00,meteohub,2013-04-04 09:18:00,
2013-04-04 10:23:00,41.0,28.2,30.25,East,90,11.0,14.0,60,0.00,,,0.00,meteohub,2013-04-04 09:23:00,
2013-04-04 10:28:00,41.4,28.0,30.25,East,90,6.0,15.0,59,0.00,,,0.00,meteohub,2013-04-04 09:28:00,
2013-04-04 10:34:00,41.9,28.2,30.25,East,90,11.0,15.0,58,0.00,,,0.00,meteohub,2013-04-04 09:34:00,
2013-04-04 10:39:00,41.9,27.3,30.25,ENE,67,15.0,15.0,56,0.00,,,0.00,meteohub,2013-04-04 09:39:00,
2013-04-04 10:44:00,42.3,27.3,30.25,ENE,67,8.0,15.0,55,0.00,,,0.00,meteohub,2013-04-04 09:44:00,
2013-04-04 10:49:00,42.8,27.3,30.25,NE,45,8.0,17.0,54,0.00,,,0.00,meteohub,2013-04-04 09:49:00,
2013-04-04 10:54:00,43.3,28.2,30.25,NE,45,6.0,17.0,55,0.00,,,0.00,meteohub,2013-04-04 09:54:00,
2013-04-04 11:00:00,43.9,28.4,30.25,ENE,67,13.0,15.0,54,0.00,,,0.00,meteohub,2013-04-04 10:00:00,
2013-04-04 11:05:00,44.4,27.9,30.25,NE,45,8.0,13.0,52,0.00,,,0.00,meteohub,2013-04-04 10:05:00,
2013-04-04 11:10:00,44.6,28.0,30.25,NE,45,6.0,15.0,52,0.00,,,0.00,meteohub,2013-04-04 10:10:00,
2013-04-04 11:15:00,44.6,27.5,30.25,NE,45,13.0,15.0,51,0.00,,,0.00,meteohub,2013-04-04 10:15:00,
2013-04-04 11:21:00,44.1,27.1,30.25,NE,45,13.0,18.0,51,0.00,,,0.00,meteohub,2013-04-04 10:21:00,
2013-04-04 11:26:00,43.3,27.0,30.25,ENE,67,10.0,18.0,52,0.00,,,0.00,meteohub,2013-04-04 10:26:00,
2013-04-04 11:32:00,42.8,26.4,30.25,ENE,67,11.0,18.0,52,0.00,,,0.00,meteohub,2013-04-04 10:32:00,
2013-04-04 11:37:00,42.6,26.2,30.25,East,90,10.0,15.0,52,0.00,,,0.00,meteohub,2013-04-04 10:37:00,
2013-04-04 11:42:00,42.3,26.4,30.25,NE,45,11.0,15.0,53,0.00,,,0.00,meteohub,2013-04-04 10:42:00,
2013-04-04 11:47:00,42.1,26.2,30.25,East,90,11.0,13.0,53,0.00,,,0.00,meteohub,2013-04-04 10:47:00,
2013-04-04 11:52:00,42.1,25.7,30.25,NNE,22,12.0,13.0,52,0.00,,,0.00,meteohub,2013-04-04 10:52:00,
2013-04-04 11:58:00,42.1,25.7,30.25,NE,45,11.0,14.0,52,0.00,,,0.00,meteohub,2013-04-04 10:58:00,
2013-04-04 12:03:00,42.3,26.4,30.25,NE,45,9.0,14.0,53,0.00,,,0.00,meteohub,2013-04-04 11:03:00,
2013-04-04 12:08:00,42.4,26.1,30.25,ENE,67,8.0,14.0,52,0.00,,,0.00,meteohub,2013-04-04 11:08:00,
2013-04-04 12:13:00,42.4,26.1,30.25,East,90,10.0,14.0,52,0.00,,,0.00,meteohub,2013-04-04 11:13:00,
2013-04-04 12:19:00,42.6,26.6,30.25,ENE,67,11.0,13.0,53,0.00,,,0.00,meteohub,2013-04-04 11:19:00,
2013-04-04 12:24:00,42.4,26.6,30.25,NNE,22,9.0,14.0,53,0.00,,,0.00,meteohub,2013-04-04 11:24:00,
2013-04-04 12:29:00,42.4,26.6,30.25,ENE,67,5.0,14.0,53,0.00,,,0.00,meteohub,2013-04-04 11:29:00,
2013-04-04 12:34:00,42.4,26.6,30.25,NE,45,8.0,14.0,53,0.00,,,0.00,meteohub,2013-04-04 11:34:00,
2013-04-04 12:40:00,42.1,26.2,30.25,ENE,67,7.0,13.0,53,0.00,,,0.00,meteohub,2013-04-04 11:40:00,
2013-04-04 12:45:00,42.1,25.7,30.25,ENE,67,8.0,17.0,52,0.00,,,0.00,meteohub,2013-04-04 11:45:00,
2013-04-04 12:50:00,42.3,25.9,30.25,ENE,67,10.0,17.0,52,0.00,,,0.00,meteohub,2013-04-04 11:50:00,
2013-04-04 12:55:00,42.1,25.3,30.25,NE,45,13.0,15.0,51,0.00,,,0.00,meteohub,2013-04-04 11:55:00,
2013-04-04 13:00:00,42.3,25.3,30.25,East,90,6.0,15.0,51,0.00,,,0.00,meteohub,2013-04-04 12:00:00,
2013-04-04 13:05:00,42.8,25.5,30.25,ENE,67,8.0,15.0,50,0.00,,,0.00,meteohub,2013-04-04 12:05:00,
2013-04-04 13:10:00,42.4,24.6,30.25,East,90,10.0,14.0,49,0.00,,,0.00,meteohub,2013-04-04 12:10:00,
2013-04-04 13:16:00,43.0,25.2,30.25,NE,45,8.0,14.0,49,0.00,,,0.00,meteohub,2013-04-04 12:16:00,
2013-04-04 13:21:00,43.5,25.7,30.25,East,90,6.0,16.0,49,0.00,,,0.00,meteohub,2013-04-04 12:21:00,
2013-04-04 13:26:00,43.7,25.7,30.25,NE,45,6.0,16.0,49,0.00,,,0.00,meteohub,2013-04-04 12:26:00,
2013-04-04 13:31:00,43.9,25.9,30.25,NE,45,8.0,16.0,49,0.00,,,0.00,meteohub,2013-04-04 12:31:00,
2013-04-04 13:36:00,44.2,25.7,30.25,ENE,67,11.0,14.0,48,0.00,,,0.00,meteohub,2013-04-04 12:36:00,
2013-04-04 13:42:00,44.8,26.2,30.25,East,90,5.0,14.0,48,0.00,,,0.00,meteohub,2013-04-04 12:42:00,
2013-04-04 13:47:00,45.1,26.1,30.25,ENE,67,13.0,13.0,47,0.00,,,0.00,meteohub,2013-04-04 12:47:00,
2013-04-04 13:52:00,45.1,25.5,30.25,NE,45,6.0,14.0,46,0.00,,,0.00,meteohub,2013-04-04 12:52:00,
2013-04-04 13:57:00,45.0,25.3,30.25,NE,45,11.0,14.0,46,0.00,,,0.00,meteohub,2013-04-04 12:57:00,
2013-04-04 14:02:00,45.3,25.7,30.25,North,0,9.0,15.0,46,0.00,,,0.00,meteohub,2013-04-04 13:02:00,
2013-04-04 14:07:00,45.5,25.3,30.25,NE,45,9.0,15.0,45,0.00,,,0.00,meteohub,2013-04-04 13:07:00,
2013-04-04 14:12:00,45.5,24.8,30.25,NE,45,6.0,17.0,44,0.00,,,0.00,meteohub,2013-04-04 13:12:00,
2013-04-04 14:17:00,45.5,24.3,30.25,NE,45,9.0,17.0,43,0.00,,,0.00,meteohub,2013-04-04 13:17:00,
2013-04-04 14:22:00,45.5,23.7,30.25,ENE,67,6.0,17.0,42,0.00,,,0.00,meteohub,2013-04-04 13:22:00,
2013-04-04 14:27:00,45.5,23.7,30.25,NE,45,10.0,17.0,42,0.00,,,0.00,meteohub,2013-04-04 13:27:00,
2013-04-04 14:32:00,45.3,23.5,30.25,East,90,10.0,15.0,42,0.00,,,0.00,meteohub,2013-04-04 13:32:00,
2013-04-04 14:37:00,45.7,23.9,30.25,East,90,8.0,15.0,42,0.00,,,0.00,meteohub,2013-04-04 13:37:00,
2013-04-04 14:42:00,45.9,24.1,30.25,NE,45,8.0,15.0,42,0.00,,,0.00,meteohub,2013-04-04 13:42:00,
2013-04-04 14:47:00,45.7,23.4,30.22,NE,45,8.0,17.0,41,0.00,,,0.00,meteohub,2013-04-04 13:47:00,
2013-04-04 14:53:00,45.9,23.5,30.22,NE,45,9.0,17.0,41,0.00,,,0.00,meteohub,2013-04-04 13:53:00,
2013-04-04 14:58:00,45.9,24.1,30.22,East,90,6.0,17.0,42,0.00,,,0.00,meteohub,2013-04-04 13:58:00,
2013-04-04 15:03:00,45.7,23.4,30.22,East,90,13.0,16.0,41,0.00,,,0.00,meteohub,2013-04-04 14:03:00,
2013-04-04 15:08:00,45.9,22.8,30.22,ENE,67,11.0,16.0,40,0.00,,,0.00,meteohub,2013-04-04 14:08:00,
2013-04-04 15:14:00,45.9,22.8,30.22,NE,45,9.0,15.0,40,0.00,,,0.00,meteohub,2013-04-04 14:14:00,
2013-04-04 15:19:00,45.9,23.5,30.22,East,90,7.0,16.0,41,0.00,,,0.00,meteohub,2013-04-04 14:19:00,
2013-04-04 15:24:00,45.9,23.5,30.22,East,90,15.0,16.0,41,0.00,,,0.00,meteohub,2013-04-04 14:24:00,
2013-04-04 15:30:00,45.9,22.8,30.22,ENE,67,9.0,17.0,40,0.00,,,0.00,meteohub,2013-04-04 14:30:00,
2013-04-04 15:36:00,46.0,23.7,30.22,East,90,6.0,17.0,41,0.00,,,0.00,meteohub,2013-04-04 14:36:00,
2013-04-04 15:41:00,46.2,24.4,30.22,NE,45,10.0,20.0,42,0.00,,,0.00,meteohub,2013-04-04 14:41:00,
2013-04-04 15:46:00,46.2,25.0,30.22,ENE,67,18.0,20.0,43,0.00,,,0.00,meteohub,2013-04-04 14:46:00,
2013-04-04 15:51:00,46.2,25.5,30.22,NE,45,13.0,20.0,44,0.00,,,0.00,meteohub,2013-04-04 14:51:00,
2013-04-04 15:56:00,46.0,25.9,30.22,NE,45,9.0,18.0,45,0.00,,,0.00,meteohub,2013-04-04 14:56:00,
2013-04-04 16:02:00,46.0,25.9,30.22,NE,45,10.0,18.0,45,0.00,,,0.00,meteohub,2013-04-04 15:02:00,
2013-04-04 16:07:00,45.9,24.1,30.22,ENE,67,10.0,17.0,42,0.00,,,0.00,meteohub,2013-04-04 15:07:00,
2013-04-04 16:12:00,45.9,23.5,30.22,NE,45,13.0,17.0,41,0.00,,,0.00,meteohub,2013-04-04 15:12:00,
2013-04-04 16:17:00,45.9,22.3,30.22,ENE,67,12.0,17.0,39,0.00,,,0.00,meteohub,2013-04-04 15:17:00,
2013-04-04 16:23:00,45.9,22.3,30.22,ENE,67,11.0,17.0,39,0.00,,,0.00,meteohub,2013-04-04 15:23:00,
2013-04-04 16:28:00,45.9,23.5,30.22,ESE,112,7.0,17.0,41,0.00,,,0.00,meteohub,2013-04-04 15:28:00,
2013-04-04 16:33:00,45.5,25.3,30.22,East,90,11.0,15.0,45,0.00,,,0.00,meteohub,2013-04-04 15:33:00,
2013-04-04 16:40:00,45.3,25.7,30.22,East,90,9.0,15.0,46,0.00,,,0.00,meteohub,2013-04-04 15:40:00,
2013-04-04 16:45:00,45.1,25.5,30.22,East,90,15.0,15.0,46,0.00,,,0.00,meteohub,2013-04-04 15:45:00,
2013-04-04 16:51:00,44.8,25.7,30.22,East,90,9.0,15.0,47,0.00,,,0.00,meteohub,2013-04-04 15:51:00,
2013-04-04 16:56:00,44.6,25.7,30.22,East,90,11.0,15.0,47,0.00,,,0.00,meteohub,2013-04-04 15:56:00,
2013-04-04 17:01:00,44.4,25.9,30.22,ENE,67,6.0,15.0,48,0.00,,,0.00,meteohub,2013-04-04 16:01:00,
2013-04-04 17:07:00,44.2,25.7,30.22,ENE,67,12.0,15.0,48,0.00,,,0.00,meteohub,2013-04-04 16:07:00,
2013-04-04 17:12:00,44.2,26.2,30.22,North,0,10.0,15.0,49,0.00,,,0.00,meteohub,2013-04-04 16:12:00,
2013-04-04 17:17:00,44.1,26.1,30.22,ENE,67,9.0,15.0,49,0.00,,,0.00,meteohub,2013-04-04 16:17:00,
2013-04-04 17:22:00,44.1,26.1,30.22,ENE,67,7.0,15.0,49,0.00,,,0.00,meteohub,2013-04-04 16:22:00,
2013-04-04 17:27:00,44.2,26.8,30.22,NE,45,11.0,15.0,50,0.00,,,0.00,meteohub,2013-04-04 16:27:00,
2013-04-04 17:32:00,44.2,26.8,30.22,ENE,67,9.0,15.0,50,0.00,,,0.00,meteohub,2013-04-04 16:32:00,
2013-04-04 17:37:00,44.2,26.8,30.22,ENE,67,8.0,14.0,50,0.00,,,0.00,meteohub,2013-04-04 16:37:00,
2013-04-04 17:43:00,44.2,26.8,30.22,NE,45,10.0,14.0,50,0.00,,,0.00,meteohub,2013-04-04 16:43:00,
2013-04-04 17:48:00,44.1,26.6,30.22,ENE,67,9.0,13.0,50,0.00,,,0.00,meteohub,2013-04-04 16:48:00,
2013-04-04 17:53:00,43.9,26.4,30.22,ENE,67,8.0,13.0,50,0.00,,,0.00,meteohub,2013-04-04 16:53:00,
2013-04-04 17:58:00,43.7,26.2,30.22,ENE,67,4.0,13.0,50,0.00,,,0.00,meteohub,2013-04-04 16:58:00,
2013-04-04 18:03:00,43.5,26.1,30.22,East,90,6.0,13.0,50,0.00,,,0.00,meteohub,2013-04-04 17:03:00,
2013-04-04 18:08:00,43.2,26.2,30.22,NE,45,8.0,12.0,51,0.00,,,0.00,meteohub,2013-04-04 17:08:00,
2013-04-04 18:14:00,43.2,26.2,30.22,ENE,67,6.0,12.0,51,0.00,,,0.00,meteohub,2013-04-04 17:14:00,
2013-04-04 18:19:00,43.2,26.2,30.22,ENE,67,6.0,12.0,51,0.00,,,0.00,meteohub,2013-04-04 17:19:00,
2013-04-04 18:24:00,43.2,25.7,30.22,ENE,67,10.0,12.0,50,0.00,,,0.00,meteohub,2013-04-04 17:24:00,
2013-04-04 18:29:00,43.3,26.4,30.22,ENE,67,6.0,10.0,51,0.00,,,0.00,meteohub,2013-04-04 17:29:00,
2013-04-04 18:35:00,43.3,26.4,30.22,North,0,8.0,10.0,51,0.00,,,0.00,meteohub,2013-04-04 17:35:00,
2013-04-04 18:40:00,43.2,25.7,30.22,NNE,22,7.0,13.0,50,0.00,,,0.00,meteohub,2013-04-04 17:40:00,
2013-04-04 18:45:00,43.3,25.9,30.22,East,90,7.0,13.0,50,0.00,,,0.00,meteohub,2013-04-04 17:45:00,
2013-04-04 18:51:00,43.3,25.9,30.22,NE,45,9.0,10.0,50,0.00,,,0.00,meteohub,2013-04-04 17:51:00,
2013-04-04 18:56:00,43.0,25.7,30.22,NE,45,8.0,11.0,50,0.00,,,0.00,meteohub,2013-04-04 17:56:00,
2013-04-04 19:02:00,43.0,25.7,30.22,ENE,67,10.0,12.0,50,0.00,,,0.00,meteohub,2013-04-04 18:02:00,
2013-04-04 19:07:00,42.8,25.5,30.22,ENE,67,4.0,12.0,50,0.00,,,0.00,meteohub,2013-04-04 18:07:00,
2013-04-04 19:12:00,42.6,25.7,30.22,NE,45,8.0,12.0,51,0.00,,,0.00,meteohub,2013-04-04 18:12:00,
2013-04-04 19:17:00,42.3,25.3,30.22,ENE,67,9.0,11.0,51,0.00,,,0.00,meteohub,2013-04-04 18:17:00,
2013-04-04 19:22:00,42.1,25.3,30.22,NE,45,4.0,11.0,51,0.00,,,0.00,meteohub,2013-04-04 18:22:00,
2013-04-04 19:27:00,41.7,25.0,30.22,ENE,67,5.0,10.0,51,0.00,,,0.00,meteohub,2013-04-04 18:27:00,
2013-04-04 19:32:00,41.7,25.0,30.22,ENE,67,5.0,10.0,51,0.00,,,0.00,meteohub,2013-04-04 18:32:00,
2013-04-04 19:37:00,41.5,24.8,30.22,ENE,67,6.0,9.0,51,0.00,,,0.00,meteohub,2013-04-04 18:37:00,
2013-04-04 19:43:00,41.5,24.8,30.22,ENE,67,4.0,9.0,51,0.00,,,0.00,meteohub,2013-04-04 18:43:00,
2013-04-04 19:48:00,41.4,24.6,30.22,NE,45,6.0,9.0,51,0.00,,,0.00,meteohub,2013-04-04 18:48:00,
2013-04-04 19:54:00,41.2,24.4,30.22,NNE,22,4.0,7.0,51,0.00,,,0.00,meteohub,2013-04-04 18:54:00,
2013-04-04 19:59:00,41.0,24.3,30.22,ENE,67,4.0,7.0,51,0.00,,,0.00,meteohub,2013-04-04 18:59:00,
2013-04-04 20:04:00,41.0,24.3,30.22,NE,45,4.0,7.0,51,0.00,,,0.00,meteohub,2013-04-04 19:04:00,
2013-04-04 20:10:00,40.6,24.4,30.22,ENE,67,4.0,7.0,52,0.00,,,0.00,meteohub,2013-04-04 19:10:00,
2013-04-04 20:15:00,40.6,24.4,30.22,NE,45,4.0,7.0,52,0.00,,,0.00,meteohub,2013-04-04 19:15:00,
2013-04-04 20:20:00,40.5,24.3,30.22,NE,45,3.0,7.0,52,0.00,,,0.00,meteohub,2013-04-04 19:20:00,
2013-04-04 20:25:00,40.5,24.6,30.22,NNE,22,3.0,6.0,53,0.00,,,0.00,meteohub,2013-04-04 19:25:00,
2013-04-04 20:30:00,40.3,24.4,30.22,NNW,337,3.0,6.0,53,0.00,,,0.00,meteohub,2013-04-04 19:30:00,
2013-04-04 20:36:00,40.3,25.0,30.22,NNE,22,3.0,5.0,54,0.00,,,0.00,meteohub,2013-04-04 19:36:00,
2013-04-04 20:41:00,40.1,24.8,30.22,NE,45,3.0,5.0,54,0.00,,,0.00,meteohub,2013-04-04 19:41:00,
2013-04-04 20:46:00,40.1,25.2,30.22,NNW,337,0.0,6.0,55,0.00,,,0.00,meteohub,2013-04-04 19:46:00,
2013-04-04 20:52:00,39.9,25.5,30.22,North,0,2.0,6.0,56,0.00,,,0.00,meteohub,2013-04-04 19:52:00,
2013-04-04 20:57:00,39.9,25.9,30.22,NNE,22,3.0,6.0,57,0.00,,,0.00,meteohub,2013-04-04 19:57:00,
2013-04-04 21:02:00,39.9,26.4,30.22,NNE,22,3.0,6.0,58,0.00,,,0.00,meteohub,2013-04-04 20:02:00,
2013-04-04 21:07:00,39.9,27.1,30.22,North,0,3.0,4.0,60,0.00,,,0.00,meteohub,2013-04-04 20:07:00,
2013-04-04 21:12:00,39.7,27.0,30.22,NNE,22,2.0,4.0,60,0.00,,,0.00,meteohub,2013-04-04 20:12:00,
2013-04-04 21:18:00,39.7,27.3,30.22,NNE,22,4.0,4.0,61,0.00,,,0.00,meteohub,2013-04-04 20:18:00,
2013-04-04 21:23:00,39.7,27.3,30.22,North,0,3.0,6.0,61,0.00,,,0.00,meteohub,2013-04-04 20:23:00,
2013-04-04 21:28:00,39.6,27.7,30.22,NNE,22,2.0,6.0,62,0.00,,,0.00,meteohub,2013-04-04 20:28:00,
2013-04-04 21:33:00,39.6,27.7,30.22,North,0,3.0,6.0,62,0.00,,,0.00,meteohub,2013-04-04 20:33:00,
2013-04-04 21:38:00,39.4,28.2,30.22,NNE,22,3.0,6.0,64,0.00,,,0.00,meteohub,2013-04-04 20:38:00,
2013-04-04 21:43:00,39.4,28.2,30.22,North,0,5.0,6.0,64,0.00,,,0.00,meteohub,2013-04-04 20:43:00,
2013-04-04 21:49:00,39.4,28.9,30.22,NNE,22,5.0,6.0,66,0.00,,,0.00,meteohub,2013-04-04 20:49:00,
2013-04-04 21:54:00,39.4,29.7,30.22,NE,45,5.0,6.0,68,0.00,,,0.00,meteohub,2013-04-04 20:54:00,
2013-04-04 21:59:00,39.2,29.5,30.22,NNE,22,6.0,11.0,68,0.00,,,0.00,meteohub,2013-04-04 20:59:00,
2013-04-04 22:04:00,39.2,29.8,30.22,NE,45,6.0,11.0,69,0.00,,,0.00,meteohub,2013-04-04 21:04:00,
2013-04-04 22:10:00,39.0,30.4,30.22,North,0,4.0,10.0,71,0.00,,,0.00,meteohub,2013-04-04 21:10:00,
2013-04-04 22:15:00,39.0,30.4,30.22,North,0,6.0,9.0,71,0.00,,,0.00,meteohub,2013-04-04 21:15:00,
2013-04-04 22:20:00,38.8,30.6,30.22,North,0,5.0,9.0,72,0.00,,,0.00,meteohub,2013-04-04 21:20:00,
2013-04-04 22:25:00,38.8,31.3,30.22,NE,45,7.0,9.0,74,0.00,,,0.00,meteohub,2013-04-04 21:25:00,
2013-04-04 22:30:00,38.8,31.3,30.22,NNE,22,6.0,9.0,74,0.00,,,0.00,meteohub,2013-04-04 21:30:00,
2013-04-04 22:36:00,39.0,31.5,30.22,ENE,67,6.0,9.0,74,0.00,,,0.00,meteohub,2013-04-04 21:36:00,
2013-04-04 22:41:00,39.0,32.2,30.22,NNE,22,6.0,7.0,76,0.00,,,0.00,meteohub,2013-04-04 21:41:00,
2013-04-04 22:46:00,39.2,32.0,30.22,ENE,67,8.0,8.0,75,0.00,,,0.00,meteohub,2013-04-04 21:46:00,
2013-04-04 22:51:00,39.2,32.4,30.22,NNE,22,3.0,10.0,76,0.00,,,0.00,meteohub,2013-04-04 21:51:00,
2013-04-04 22:56:00,39.2,32.4,30.22,NE,45,3.0,11.0,76,0.00,,,0.00,meteohub,2013-04-04 21:56:00,
2013-04-04 23:02:00,39.2,32.5,30.22,NE,45,6.0,11.0,77,0.00,,,0.00,meteohub,2013-04-04 22:02:00,
2013-04-04 23:07:00,39.2,32.5,30.22,NNE,22,9.0,11.0,77,0.00,,,0.00,meteohub,2013-04-04 22:07:00,
2013-04-04 23:12:00,39.0,32.7,30.22,ENE,67,6.0,10.0,78,0.00,,,0.00,meteohub,2013-04-04 22:12:00,
2013-04-04 23:17:00,39.0,32.4,30.22,ENE,67,6.0,10.0,77,0.00,,,0.00,meteohub,2013-04-04 22:17:00,
2013-04-04 23:23:00,38.8,32.5,30.22,ENE,67,6.0,10.0,78,0.00,,,0.00,meteohub,2013-04-04 22:23:00,
2013-04-04 23:28:00,39.0,32.7,30.22,NW,315,5.0,9.0,78,0.00,,,0.00,meteohub,2013-04-04 22:28:00,
2013-04-04 23:33:00,39.0,33.1,30.22,North,0,8.0,8.0,79,0.00,,,0.00,meteohub,2013-04-04 22:33:00,
2013-04-04 23:39:00,39.0,33.4,30.22,ENE,67,6.0,10.0,80,0.00,,,0.00,meteohub,2013-04-04 22:39:00,
2013-04-04 23:44:00,39.0,33.6,30.22,ENE,67,11.0,13.0,81,0.00,,,0.00,meteohub,2013-04-04 22:44:00,
2013-04-04 23:49:00,38.7,34.0,30.22,NE,45,6.0,13.0,83,0.00,,,0.00,meteohub,2013-04-04 22:49:00,
2013-04-04 23:54:00,38.5,34.2,30.22,ESE,112,6.0,13.0,84,0.00,,,0.00,meteohub,2013-04-04 22:54:00,